Regional Weather Roundup
Issued by NWS Burlington, VT

Home | Current Version | Previous Version | Text Only | Print | Product List | Glossary On
Versions: 1 2 3 4 5 6 7 8 9 10 11 12 13 14 15 16 17 18 19 20 21 22 23 24 25 26 27 28 29 30 31 32 33 34 35 36 37 38 39 40 41 42 43 44 45 46 47 48 49 50
000
ASUS41 KBTV 251830
RWRBTV
VERMONT REGIONAL WEATHER ROUNDUP
NATIONAL WEATHER SERVICE BURLINGTON VT
200 PM EDT FRI JUL 25 2014

NOTE: "FAIR" INDICATES FEW OR NO CLOUDS BELOW 12,000 FEET WITH NO
SIGNIFICANT WEATHER AND/OR OBSTRUCTIONS TO VISIBILITY.

* THESE REPORTS ARE NOT UNDER NWS QUALITY CONTROL AND/OR DO NOT
  REPORT WEATHER SUCH AS PRECIPITATION AND FOG.

VTZ001>019-251900-
_____VERMONT_____


CITY           SKY/WX    TMP DP  RH WIND       PRES   REMARKS
BURLINGTON     PTCLDY    80  57  45 SW6       29.94F
6HR MIN TEMP:  62; 6HR MAX TEMP:  80;

MONTPELIER     MOCLDY    75  55  49 W8        30.01F
6HR MIN TEMP:  51; 6HR MAX TEMP:  75;

MORRISVILLE    MOCLDY    76  54  46 CALM      29.97S
ST. JOHNSBURY*   N/A     76  53  44 MISG      29.92F
6HR MIN TEMP:  51; 6HR MAX TEMP:  77;

LYNDONVILLE*   FAIR      74  50  43 W13G21    29.97S
6HR MIN TEMP:  50; 6HR MAX TEMP:  75;

MIDDLEBURY*    FAIR      77  56  48 S5        29.96F
6HR MIN TEMP:  60; 6HR MAX TEMP:  77;

RUTLAND*       CLEAR     73  55  53 W9        29.99S
6HR MIN TEMP:  55; 6HR MAX TEMP:  73;

SPRINGFIELD    CLEAR     79  52  38 NW8       29.97F
6HR MIN TEMP:  52; 6HR MAX TEMP:  79;

HIGHGATE*      FAIR      77  58  53 SW5       29.92F
6HR MIN TEMP:  63; 6HR MAX TEMP:  77;

NEWPORT*       MOCLDY   N/A N/A N/A SW14      29.95F
BENNINGTON     CLEAR     74  55  51 W6        30.01F
6HR MIN TEMP:  57; 6HR MAX TEMP:  75;

SUTTON*          N/A     72 N/A N/A MISG        N/A
GALLUP MILLS*    N/A     59 N/A N/A MISG        N/A
UNION VILLAGE*   N/A     77 N/A N/A MISG        N/A
MT. MANSFIELD*   N/A     61 N/A N/A NW13        N/A

_____LAKE CHAMPLAIN_____


CITY           SKY/WX    TMP DP  RH WIND       PRES   REMARKS
COLCHESTER RF*   N/A    N/A N/A N/A S15         N/A
DIAMOND ISL*     N/A     73  59  60 SW7         N/A

$$

NYZ007-026>031-035-052-083-251900-
_____NORTHERN NEW YORK_____


CITY           SKY/WX    TMP DP  RH WIND       PRES   REMARKS
PLATTSBURGH    PTCLDY    80  54  40 VRB7G17   29.93S
6HR MIN TEMP:  64; 6HR MAX TEMP:  80;

SARANAC LAKE   PTCLDY    72  51  47 W13G21    29.99F
6HR MIN TEMP:  55; 6HR MAX TEMP:  73;

MASSENA        CLEAR     76  56  49 W16G25    29.95F
6HR MIN TEMP:  60; 6HR MAX TEMP:  76;

OGDENSBURG*    CLEAR     75  55  50 SW13G22   29.96F
POTSDAM*       CLEAR     75  59  57 W15       29.96F
PARISHVILLE*     N/A     70 N/A N/A SW13        N/A
WATERTOWN      CLEAR     72  54  53 SW14      30.01F
6HR MIN TEMP:  63; 6HR MAX TEMP:  74;

FT DRUM        PTCLDY    73  52  47 W12G20    30.01F
6HR MIN TEMP:  60; 6HR MAX TEMP:  73;

ALBANY         PTCLDY    79  54  41 CALM      29.99F
6HR MIN TEMP:  62; 6HR MAX TEMP:  79;

GLENS FALLS    CLEAR     78  60  53 SW7       29.97F
6HR MIN TEMP:  59; 6HR MAX TEMP:  78;


$$
NHZ002-005-011-251900-
_____NEW HAMPSHIRE_____


CITY           SKY/WX    TMP DP  RH WIND       PRES   REMARKS
LEBANON        PTCLDY    78  52  40 W7        29.95F
6HR MIN TEMP:  53; 6HR MAX TEMP:  81;

KEENE          CLEAR     77  52  41 NW9       29.97S
6HR MIN TEMP:  54; 6HR MAX TEMP:  77;

MT WASHINGTON  FOG       46  46 100 NW31G39     N/A  VSB 1/8
6HR MIN TEMP:  42; 6HR MAX TEMP:  47;

PLYMOUTH       FAIR      77  56  47 W8        29.94S
6HR MIN TEMP:  55; 6HR MAX TEMP:  77;

WHITEFIELD     PTCLDY    75  56  51 W6        29.95F
6HR MIN TEMP:  52; 6HR MAX TEMP:  75;


$$

_____REGIONAL QUEBEC LOCATIONS_____


CITY           SKY/WX    TMP DP  RH WIND       PRES   REMARKS
MONTREAL       MOCLDY    75  59  57 SW16G23   29.91F
QUEBEC CITY    MOCLDY    77  59  53 W21       29.84F
SHERBROOKE     MOCLDY    73  55  53 W15G21    29.92S

_____REGIONAL ONTARIO LOCATIONS_____


CITY           SKY/WX    TMP DP  RH WIND       PRES   REMARKS
OTTAWA         MOCLDY    79  61  53 SW13G18   29.93F

______KEY______
VSB  - VISIBILITY IN MILES
WCI  - WIND CHILL INDEX
HX   - HEAT INDEX
$$
NNNN



USA.gov is the U.S. government's official web portal to all federal, state and local government web resources and services.